Time,TemperatureF,DewpointF,PressureIn,WindDirection,WindDirectionDegrees,WindSpeedMPH,WindSpeedGustMPH,Humidity,HourlyPrecipIn,Conditions,Clouds,dailyrainin,SoftwareType,DateUTC
2013-02-20 00:02:00,37.0,23.0,-100.00,NW,315,6.0,14.0,57,0.00,,,-99.99,,2013-02-20 05:02:00,
2013-02-20 00:12:00,37.0,23.0,-100.00,WNW,300,4.0,11.0,57,0.00,,,-99.99,,2013-02-20 05:12:00,
2013-02-20 00:22:00,37.0,23.0,-100.00,WNW,300,4.0,11.0,57,0.00,,,-99.99,,2013-02-20 05:22:00,
2013-02-20 00:32:00,36.0,23.0,-100.00,WNW,290,6.0,14.0,57,0.00,,,-99.99,,2013-02-20 05:32:00,
2013-02-20 00:43:00,36.0,23.0,-100.00,NNW,335,3.0,11.0,58,0.00,,,-99.99,,2013-02-20 05:43:00,
2013-02-20 00:52:00,36.0,23.0,-100.00,NNW,335,3.0,11.0,58,0.00,,,-99.99,,2013-02-20 05:52:00,
2013-02-20 01:02:00,36.0,23.0,-100.00,NNW,335,3.0,11.0,58,0.00,,,-99.99,,2013-02-20 06:02:00,
2013-02-20 01:10:00,35.0,22.0,-100.00,NW,310,6.0,10.0,59,0.00,,,-99.99,,2013-02-20 06:10:00,
2013-02-20 01:11:00,36.0,23.0,-100.00,NNW,335,3.0,11.0,58,0.00,,,-99.99,,2013-02-20 06:11:00,
2013-02-20 01:21:00,36.0,23.0,-100.00,NNW,335,3.0,11.0,58,0.00,,,-99.99,,2013-02-20 06:21:00,
2013-02-20 01:32:00,35.0,22.0,-100.00,NW,310,6.0,10.0,59,0.00,,,-99.99,,2013-02-20 06:32:00,
2013-02-20 01:42:00,35.0,22.0,-100.00,NW,310,6.0,10.0,59,0.00,,,-99.99,,2013-02-20 06:42:00,
2013-02-20 01:52:00,35.0,22.0,-100.00,NW,310,6.0,10.0,59,0.00,,,-99.99,,2013-02-20 06:52:00,
2013-02-20 02:02:00,35.0,22.0,-100.00,NW,310,6.0,10.0,59,0.00,,,-99.99,,2013-02-20 07:02:00,
2013-02-20 02:32:00,35.0,23.0,-100.00,NW,325,4.0,14.0,62,0.00,,,-99.99,,2013-02-20 07:32:00,
2013-02-20 02:42:00,34.0,23.0,-100.00,NNW,330,5.0,10.0,64,0.00,,,-99.99,,2013-02-20 07:42:00,
2013-02-20 02:52:00,34.0,23.0,-100.00,NNW,330,5.0,10.0,64,0.00,,,-99.99,,2013-02-20 07:52:00,
2013-02-20 03:05:00,34.0,23.0,-100.00,NW,310,3.0,15.0,64,0.00,,,-99.99,,2013-02-20 08:05:00,
2013-02-20 03:11:00,34.0,22.0,-100.00,NW,320,3.0,7.0,63,0.00,,,-99.99,,2013-02-20 08:11:00,
2013-02-20 03:21:00,33.0,23.0,-100.00,North,350,5.0,14.0,64,0.00,,,-99.99,,2013-02-20 08:21:00,
2013-02-20 03:31:00,33.0,23.0,-100.00,North,350,5.0,14.0,64,0.00,,,-99.99,,2013-02-20 08:31:00,
2013-02-20 03:42:00,33.0,22.0,-100.00,NW,315,6.0,17.0,63,0.00,,,-99.99,,2013-02-20 08:42:00,
2013-02-20 03:52:00,33.0,22.0,-100.00,NW,315,6.0,17.0,63,0.00,,,-99.99,,2013-02-20 08:52:00,
2013-02-20 04:02:00,33.0,20.0,-100.00,NNW,335,7.0,20.0,59,0.00,,,-99.99,,2013-02-20 09:02:00,
2013-02-20 04:11:00,33.0,20.0,-100.00,NNW,335,6.0,13.0,59,0.00,,,-99.99,,2013-02-20 09:11:00,
2013-02-20 04:21:00,33.0,20.0,-100.00,NNW,335,6.0,13.0,59,0.00,,,-99.99,,2013-02-20 09:21:00,
2013-02-20 04:32:00,33.0,20.0,-100.00,North,0,5.0,12.0,59,0.00,,,-99.99,,2013-02-20 09:32:00,
2013-02-20 04:42:00,32.0,19.0,-100.00,SW,235,5.0,14.0,59,0.00,,,-99.99,,2013-02-20 09:42:00,
2013-02-20 04:51:00,32.0,19.0,-100.00,SW,235,5.0,14.0,59,0.00,,,-99.99,,2013-02-20 09:51:00,
2013-02-20 05:01:00,32.0,19.0,-100.00,NW,320,7.0,14.0,59,0.00,,,-99.99,,2013-02-20 10:01:00,
2013-02-20 05:12:00,31.0,19.0,-100.00,North,0,3.0,12.0,60,0.00,,,-99.99,,2013-02-20 10:12:00,
2013-02-20 05:22:00,31.0,19.0,-100.00,North,0,3.0,12.0,60,0.00,,,-99.99,,2013-02-20 10:22:00,
2013-02-20 05:32:00,31.0,19.0,-100.00,NNW,330,3.0,7.0,61,0.00,,,-99.99,,2013-02-20 10:32:00,
2013-02-20 05:42:00,31.0,19.0,-100.00,NW,325,6.0,12.0,61,0.00,,,-99.99,,2013-02-20 10:42:00,
2013-02-20 05:51:00,31.0,19.0,-100.00,NNW,345,4.0,11.0,61,0.00,,,-99.99,,2013-02-20 10:51:00,
2013-02-20 06:02:00,31.0,19.0,-100.00,NNW,345,4.0,11.0,61,0.00,,,-99.99,,2013-02-20 11:02:00,
2013-02-20 06:11:00,31.0,19.0,-100.00,WNW,285,1.0,12.0,61,0.00,,,-99.99,,2013-02-20 11:11:00,
2013-02-20 06:21:00,31.0,19.0,-100.00,WNW,285,1.0,12.0,61,0.00,,,-99.99,,2013-02-20 11:21:00,
2013-02-20 06:32:00,31.0,18.0,-100.00,NNW,340,3.0,12.0,59,0.00,,,-99.99,,2013-02-20 11:32:00,
2013-02-20 06:42:00,31.0,17.0,-100.00,NW,315,6.0,15.0,58,0.00,,,-99.99,,2013-02-20 11:42:00,
2013-02-20 06:52:00,31.0,17.0,-100.00,NW,315,6.0,15.0,58,0.00,,,-99.99,,2013-02-20 11:52:00,
2013-02-20 07:02:00,31.0,17.0,-100.00,NE,45,2.0,10.0,57,0.00,,,-99.99,,2013-02-20 12:02:00,
2013-02-20 07:12:00,30.0,17.0,-100.00,NNW,330,6.0,12.0,57,0.00,,,-99.99,,2013-02-20 12:12:00,
2013-02-20 07:21:00,30.0,17.0,-100.00,NNW,330,6.0,12.0,57,0.00,,,-99.99,,2013-02-20 12:21:00,
2013-02-20 07:32:00,30.0,17.0,-100.00,NW,320,5.0,16.0,59,0.00,,,-99.99,,2013-02-20 12:32:00,
2013-02-20 07:42:00,30.0,17.0,-100.00,NNW,340,9.0,19.0,59,0.00,,,-99.99,,2013-02-20 12:42:00,
2013-02-20 07:52:00,30.0,17.0,-100.00,NNW,340,9.0,19.0,59,0.00,,,-99.99,,2013-02-20 12:52:00,
2013-02-20 08:01:00,31.0,18.0,-100.00,NNW,345,4.0,13.0,59,0.00,,,-99.99,,2013-02-20 13:01:00,
2013-02-20 08:11:00,32.0,18.0,-100.00,North,0,6.0,13.0,57,0.00,,,-99.99,,2013-02-20 13:11:00,
2013-02-20 08:22:00,32.0,18.0,-100.00,North,0,6.0,13.0,57,0.00,,,-99.99,,2013-02-20 13:22:00,
2013-02-20 08:32:00,32.0,18.0,-100.00,North,0,6.0,13.0,57,0.00,,,-99.99,,2013-02-20 13:32:00,
2013-02-20 08:42:00,32.0,18.0,-100.00,North,350,4.0,11.0,57,0.00,,,-99.99,,2013-02-20 13:42:00,
2013-02-20 08:51:00,32.0,18.0,-100.00,NW,315,3.0,13.0,56,0.00,,,-99.99,,2013-02-20 13:51:00,
2013-02-20 09:01:00,32.0,18.0,-100.00,NW,315,3.0,13.0,56,0.00,,,-99.99,,2013-02-20 14:01:00,
2013-02-20 09:11:00,32.0,18.0,-100.00,NNW,335,4.0,9.0,56,0.00,,,-99.99,,2013-02-20 14:11:00,
2013-02-20 09:21:00,33.0,19.0,-100.00,NW,320,4.0,14.0,57,0.00,,,-99.99,,2013-02-20 14:21:00,
2013-02-20 09:32:00,33.0,19.0,-100.00,NW,320,4.0,14.0,57,0.00,,,-99.99,,2013-02-20 14:32:00,
2013-02-20 09:42:00,35.0,20.0,-100.00,NNW,340,7.0,14.0,55,0.00,,,-99.99,,2013-02-20 14:42:00,
2013-02-20 09:52:00,34.0,20.0,-100.00,NW,325,7.0,22.0,55,0.00,,,-99.99,,2013-02-20 14:52:00,
2013-02-20 10:02:00,34.0,20.0,-100.00,NW,325,7.0,22.0,55,0.00,,,-99.99,,2013-02-20 15:02:00,
2013-02-20 10:12:00,34.0,19.0,-100.00,NNW,340,9.0,17.0,54,0.00,,,-99.99,,2013-02-20 15:12:00,
2013-02-20 10:22:00,34.0,19.0,-100.00,NNW,340,9.0,17.0,54,0.00,,,-99.99,,2013-02-20 15:22:00,
2013-02-20 10:32:00,33.0,18.0,-100.00,NW,315,7.0,19.0,54,0.00,,,-99.99,,2013-02-20 15:32:00,
2013-02-20 10:42:00,33.0,19.0,-100.00,NW,325,6.0,20.0,54,0.00,,,-99.99,,2013-02-20 15:42:00,
2013-02-20 10:52:00,34.0,19.0,-100.00,NW,325,6.0,16.0,55,0.00,,,-99.99,,2013-02-20 15:52:00,
2013-02-20 11:01:00,34.0,19.0,-100.00,NW,325,6.0,16.0,55,0.00,,,-99.99,,2013-02-20 16:01:00,
2013-02-20 11:12:00,33.0,18.0,-100.00,NW,325,6.0,19.0,54,0.00,,,-99.99,,2013-02-20 16:12:00,
2013-02-20 11:21:00,35.0,20.0,-100.00,NNW,330,9.0,17.0,54,0.00,,,-99.99,,2013-02-20 16:21:00,
2013-02-20 11:32:00,35.0,20.0,-100.00,NNW,330,9.0,17.0,54,0.00,,,-99.99,,2013-02-20 16:32:00,
2013-02-20 11:42:00,34.0,18.0,-100.00,NW,310,7.0,18.0,52,0.00,,,-99.99,,2013-02-20 16:42:00,
2013-02-20 11:52:00,33.0,18.0,-100.00,WNW,290,5.0,17.0,54,0.00,,,-99.99,,2013-02-20 16:52:00,
2013-02-20 12:01:00,33.0,18.0,-100.00,WNW,290,5.0,17.0,54,0.00,,,-99.99,,2013-02-20 17:01:00,
2013-02-20 12:11:00,33.0,17.0,-100.00,NW,320,3.0,18.0,53,0.00,,,-99.99,,2013-02-20 17:11:00,
2013-02-20 12:21:00,33.0,17.0,-100.00,NW,320,3.0,18.0,53,0.00,,,-99.99,,2013-02-20 17:21:00,
2013-02-20 12:32:00,32.0,18.0,-100.00,NNW,330,9.0,18.0,54,0.00,,,-99.99,,2013-02-20 17:32:00,
2013-02-20 12:42:00,33.0,19.0,-100.00,NNW,335,2.0,16.0,55,0.00,,,-99.99,,2013-02-20 17:42:00,
2013-02-20 12:52:00,33.0,19.0,-100.00,NNW,335,2.0,16.0,55,0.00,,,-99.99,,2013-02-20 17:52:00,
2013-02-20 13:02:00,34.0,19.0,-100.00,NNW,330,4.0,14.0,55,0.00,,,-99.99,,2013-02-20 18:02:00,
2013-02-20 13:32:00,34.0,19.0,-100.00,NW,315,3.0,18.0,55,0.00,,,-99.99,,2013-02-20 18:32:00,
2013-02-20 13:42:00,34.0,20.0,-100.00,North,350,3.0,13.0,56,0.00,,,-99.99,,2013-02-20 18:42:00,
2013-02-20 13:52:00,34.0,20.0,-100.00,North,350,3.0,13.0,56,0.00,,,-99.99,,2013-02-20 18:52:00,
2013-02-20 14:01:00,33.0,19.0,-100.00,NW,320,4.0,15.0,56,0.00,,,-99.99,,2013-02-20 19:01:00,
2013-02-20 14:11:00,34.0,20.0,-100.00,NNW,330,7.0,19.0,55,0.00,,,-99.99,,2013-02-20 19:11:00,
2013-02-20 14:21:00,34.0,20.0,-100.00,NNW,330,7.0,19.0,55,0.00,,,-99.99,,2013-02-20 19:21:00,
2013-02-20 14:31:00,36.0,20.0,-100.00,NW,325,2.0,21.0,52,0.00,,,-99.99,,2013-02-20 19:31:00,
2013-02-20 14:41:00,36.0,19.0,-100.00,NW,320,9.0,21.0,50,0.00,,,-99.99,,2013-02-20 19:41:00,
2013-02-20 14:52:00,36.0,19.0,-100.00,NW,320,9.0,21.0,50,0.00,,,-99.99,,2013-02-20 19:52:00,
2013-02-20 15:01:00,35.0,19.0,-100.00,NW,310,7.0,16.0,50,0.00,,,-99.99,,2013-02-20 20:01:00,
2013-02-20 15:11:00,38.0,19.0,-100.00,NNW,335,6.0,15.0,47,0.00,,,-99.99,,2013-02-20 20:11:00,
2013-02-20 15:21:00,38.0,19.0,-100.00,NNW,335,6.0,15.0,47,0.00,,,-99.99,,2013-02-20 20:21:00,
2013-02-20 15:31:00,36.0,18.0,-100.00,NW,320,6.0,17.0,47,0.00,,,-99.99,,2013-02-20 20:31:00,
2013-02-20 15:41:00,36.0,18.0,-100.00,NNW,345,6.0,16.0,47,0.00,,,-99.99,,2013-02-20 20:41:00,
2013-02-20 15:52:00,35.0,18.0,-100.00,NW,315,6.0,20.0,48,0.00,,,-99.99,,2013-02-20 20:52:00,
2013-02-20 16:01:00,35.0,18.0,-100.00,NW,315,6.0,20.0,48,0.00,,,-99.99,,2013-02-20 21:01:00,
2013-02-20 16:11:00,34.0,17.0,-100.00,NW,315,10.0,24.0,49,0.00,,,-99.99,,2013-02-20 21:11:00,
2013-02-20 16:21:00,34.0,17.0,-100.00,NNW,330,7.0,14.0,49,0.00,,,-99.99,,2013-02-20 21:21:00,
2013-02-20 16:32:00,34.0,17.0,-100.00,NNW,330,7.0,14.0,49,0.00,,,-99.99,,2013-02-20 21:32:00,
2013-02-20 16:42:00,33.0,16.0,-100.00,NW,325,7.0,16.0,49,0.00,,,-99.99,,2013-02-20 21:42:00,
2013-02-20 16:51:00,33.0,16.0,-100.00,NW,325,7.0,16.0,49,0.00,,,-99.99,,2013-02-20 21:51:00,
2013-02-20 17:02:00,34.0,17.0,-100.00,North,0,4.0,12.0,49,0.00,,,-99.99,,2013-02-20 22:02:00,
2013-02-20 17:11:00,33.0,16.0,-100.00,NW,325,10.0,21.0,49,0.00,,,-99.99,,2013-02-20 22:11:00,
2013-02-20 17:21:00,33.0,16.0,-100.00,NW,325,10.0,21.0,49,0.00,,,-99.99,,2013-02-20 22:21:00,
2013-02-20 17:31:00,32.0,15.0,-100.00,NW,325,8.0,22.0,49,0.00,,,-99.99,,2013-02-20 22:31:00,
2013-02-20 17:43:00,31.0,15.0,-100.00,North,0,4.0,16.0,51,0.00,,,-99.99,,2013-02-20 22:43:00,
2013-02-20 17:51:00,31.0,15.0,-100.00,North,0,4.0,16.0,51,0.00,,,-99.99,,2013-02-20 22:51:00,
2013-02-20 18:01:00,30.0,15.0,-100.00,North,0,4.0,14.0,53,0.00,,,-99.99,,2013-02-20 23:01:00,
2013-02-20 18:12:00,29.0,14.0,-100.00,NNW,345,7.0,16.0,53,0.00,,,-99.99,,2013-02-20 23:12:00,
2013-02-20 18:22:00,29.0,14.0,-100.00,WNW,295,6.0,16.0,54,0.00,,,-99.99,,2013-02-20 23:22:00,
2013-02-20 18:32:00,29.0,14.0,-100.00,WNW,295,6.0,16.0,54,0.00,,,-99.99,,2013-02-20 23:32:00,
2013-02-20 18:42:00,29.0,14.0,-100.00,North,0,6.0,18.0,53,0.00,,,-99.99,,2013-02-20 23:42:00,
2013-02-20 18:52:00,29.0,13.0,-100.00,NW,315,9.0,22.0,53,0.00,,,-99.99,,2013-02-20 23:52:00,
2013-02-20 19:03:00,29.0,13.0,-100.00,NW,315,9.0,22.0,53,0.00,,,-99.99,,2013-02-21 00:03:00,
2013-02-20 19:11:00,28.0,13.0,-100.00,NNW,335,11.0,24.0,52,0.00,,,-99.99,,2013-02-21 00:11:00,
2013-02-20 19:22:00,28.0,13.0,-100.00,NNW,335,11.0,24.0,52,0.00,,,-99.99,,2013-02-21 00:22:00,
2013-02-20 19:32:00,28.0,12.0,-100.00,NW,325,6.0,20.0,52,0.00,,,-99.99,,2013-02-21 00:32:00,
2013-02-20 19:42:00,27.0,12.0,-100.00,NNW,330,10.0,19.0,53,0.00,,,-99.99,,2013-02-21 00:42:00,
2013-02-20 19:52:00,27.0,12.0,-100.00,NNW,330,10.0,19.0,53,0.00,,,-99.99,,2013-02-21 00:52:00,
2013-02-20 20:01:00,27.0,12.0,-100.00,NW,305,3.0,16.0,53,0.00,,,-99.99,,2013-02-21 01:01:00,
2013-02-20 20:11:00,26.0,12.0,-100.00,NNW,340,2.0,12.0,54,0.00,,,-99.99,,2013-02-21 01:11:00,
2013-02-20 20:21:00,26.0,12.0,-100.00,NNW,340,2.0,12.0,54,0.00,,,-99.99,,2013-02-21 01:21:00,
2013-02-20 20:32:00,26.0,11.0,-100.00,NW,310,5.0,10.0,54,0.00,,,-99.99,,2013-02-21 01:32:00,
2013-02-20 20:42:00,26.0,11.0,-100.00,NNW,330,6.0,14.0,54,0.00,,,-99.99,,2013-02-21 01:42:00,
2013-02-20 20:51:00,26.0,11.0,-100.00,NNW,330,6.0,14.0,54,0.00,,,-99.99,,2013-02-21 01:51:00,
2013-02-20 21:02:00,26.0,11.0,-100.00,WNW,300,3.0,9.0,54,0.00,,,-99.99,,2013-02-21 02:02:00,
2013-02-20 21:11:00,25.0,11.0,-100.00,NNW,335,2.0,10.0,54,0.00,,,-99.99,,2013-02-21 02:11:00,
2013-02-20 21:21:00,25.0,11.0,-100.00,NNW,335,2.0,10.0,54,0.00,,,-99.99,,2013-02-21 02:21:00,
2013-02-20 21:32:00,25.0,11.0,-100.00,NW,310,4.0,8.0,54,0.00,,,-99.99,,2013-02-21 02:32:00,
2013-02-20 21:42:00,25.0,11.0,-100.00,NW,310,4.0,8.0,54,0.00,,,-99.99,,2013-02-21 02:42:00,
2013-02-20 21:51:00,25.0,11.0,-100.00,NW,310,4.0,8.0,54,0.00,,,-99.99,,2013-02-21 02:51:00,
2013-02-20 22:02:00,25.0,11.0,-100.00,SE,140,1.0,9.0,55,0.00,,,-99.99,,2013-02-21 03:02:00,
2013-02-20 22:12:00,24.0,10.0,-100.00,NW,310,2.0,9.0,56,0.00,,,-99.99,,2013-02-21 03:12:00,
2013-02-20 22:21:00,24.0,10.0,-100.00,NW,310,2.0,9.0,56,0.00,,,-99.99,,2013-02-21 03:21:00,
2013-02-20 22:32:00,24.0,11.0,-100.00,WNW,300,2.0,8.0,57,0.00,,,-99.99,,2013-02-21 03:32:00,
2013-02-20 22:42:00,24.0,11.0,-100.00,NW,320,4.0,7.0,57,0.00,,,-99.99,,2013-02-21 03:42:00,
2013-02-20 22:52:00,24.0,11.0,-100.00,NW,320,4.0,7.0,57,0.00,,,-99.99,,2013-02-21 03:52:00,
2013-02-20 23:01:00,24.0,11.0,-100.00,NW,310,2.0,6.0,57,0.00,,,-99.99,,2013-02-21 04:01:00,
2013-02-20 23:11:00,24.0,11.0,-100.00,NW,305,4.0,11.0,58,0.00,,,-99.99,,2013-02-21 04:11:00,
2013-02-20 23:22:00,24.0,11.0,-100.00,NW,305,4.0,11.0,58,0.00,,,-99.99,,2013-02-21 04:22:00,
2013-02-20 23:32:00,24.0,12.0,-100.00,NW,310,1.0,7.0,59,0.00,,,-99.99,,2013-02-21 04:32:00,
2013-02-20 23:42:00,24.0,12.0,-100.00,WNW,300,4.0,11.0,60,0.00,,,-99.99,,2013-02-21 04:42:00,
2013-02-20 23:52:00,24.0,12.0,-100.00,WNW,300,4.0,11.0,60,0.00,,,-99.99,,2013-02-21 04:52:00,